N1505V KMHT-KPWM

Flight info

Callsign N1505V
Flight time 0h 28m
Altitude 9000
Route BEEKN ENE RNAV RWY 29
Aircraft SF50/L-V/N

Departure

Time 2026-05-04 21:01
Airport Manchester-Boston Regional Airport (KMHT)

Arrival

Time 2026-05-04 21:29
Airport Portland International Jetport (KPWM)
Time Latitude Longitude Altitude Speed Heading
2026-05-04 20:40 42.92941 -71.42961 234 ft 0 kts 337°
2026-05-04 20:49 42.92942 -71.42963 234 ft 0 kts 283°
2026-05-04 20:50 42.92942 -71.42966 233 ft 0 kts 263°
2026-05-04 20:50 42.92941 -71.42968 233 ft 0 kts 254°
2026-05-04 20:50 42.92939 -71.42992 233 ft 3 kts 259°
2026-05-04 20:50 42.92938 -71.43027 232 ft 2 kts 269°
2026-05-04 20:51 42.92944 -71.43037 232 ft 0 kts 286°
2026-05-04 20:51 42.92945 -71.43050 232 ft 3 kts 271°
2026-05-04 20:51 42.92950 -71.43063 232 ft 0 kts 321°
2026-05-04 20:51 42.92952 -71.43066 232 ft 1 kts 320°
2026-05-04 20:52 42.92964 -71.43074 232 ft 2 kts 343°
2026-05-04 20:52 42.92981 -71.43081 232 ft 4 kts 328°
2026-05-04 20:52 42.93012 -71.43106 232 ft 5 kts 328°
2026-05-04 20:52 42.93051 -71.43132 232 ft 5 kts 334°
2026-05-04 20:53 42.93089 -71.43156 232 ft 7 kts 338°
2026-05-04 20:53 42.93148 -71.43189 233 ft 9 kts 335°
2026-05-04 20:53 42.93219 -71.43233 231 ft 13 kts 335°
2026-05-04 20:53 42.93317 -71.43295 229 ft 16 kts 336°
2026-05-04 20:54 42.93417 -71.43349 227 ft 14 kts 339°
2026-05-04 20:54 42.93510 -71.43402 226 ft 13 kts 336°
2026-05-04 20:54 42.93600 -71.43452 225 ft 12 kts 335°
2026-05-04 20:54 42.93677 -71.43488 225 ft 8 kts 349°
2026-05-04 20:55 42.93714 -71.43489 225 ft 1 kts 18°
2026-05-04 20:55 42.93729 -71.43480 226 ft 2 kts
2026-05-04 20:55 42.93739 -71.43480 226 ft 0 kts 348°
2026-05-04 20:55 42.93740 -71.43481 226 ft 0 kts 346°
2026-05-04 20:56 42.93746 -71.43481 226 ft 1 kts 12°
2026-05-04 20:56 42.93772 -71.43473 227 ft 5 kts
2026-05-04 20:56 42.93812 -71.43471 228 ft 5 kts
2026-05-04 20:56 42.93854 -71.43449 228 ft 8 kts 19°
2026-05-04 20:57 42.93908 -71.43401 229 ft 11 kts 40°
2026-05-04 20:57 42.93977 -71.43316 233 ft 13 kts 42°
2026-05-04 20:57 42.94062 -71.43205 234 ft 19 kts 41°
2026-05-04 20:57 42.94179 -71.43056 232 ft 23 kts 54°
2026-05-04 20:58 42.94263 -71.42950 227 ft 0 kts 23°
2026-05-04 20:58 42.94266 -71.42947 226 ft 1 kts 36°
2026-05-04 20:58 42.94270 -71.42944 226 ft 0 kts 13°
2026-05-04 20:58 42.94274 -71.42942 226 ft 0 kts 18°
2026-05-04 20:59 42.94276 -71.42941 226 ft 0 kts 21°
2026-05-04 20:59 42.94277 -71.42941 226 ft 0 kts 23°
2026-05-04 20:59 42.94285 -71.42937 226 ft 3 kts
2026-05-04 21:00 42.94316 -71.42945 225 ft 4 kts 328°
2026-05-04 21:00 42.94334 -71.42973 226 ft 2 kts 282°
2026-05-04 21:00 42.94332 -71.43009 228 ft 6 kts 255°
2026-05-04 21:00 42.94251 -71.43142 233 ft 43 kts 218°
2026-05-04 21:01 42.93894 -71.43608 225 ft 94 kts 215°
2026-05-04 21:01 42.93325 -71.44235 348 ft 117 kts 226°
2026-05-04 21:01 42.92690 -71.44947 927 ft 116 kts 228°
2026-05-04 21:01 42.92114 -71.45689 1539 ft 118 kts 226°
2026-05-04 21:02 42.91452 -71.46477 2029 ft 131 kts 225°
2026-05-04 21:02 42.90736 -71.47335 2544 ft 143 kts 226°
2026-05-04 21:02 42.90121 -71.48497 2936 ft 161 kts 259°
2026-05-04 21:02 42.90453 -71.50160 3030 ft 204 kts 297°
2026-05-04 21:03 42.91262 -71.51923 3005 ft 233 kts 298°
2026-05-04 21:03 42.92181 -71.53928 2988 ft 252 kts 298°
2026-05-04 21:03 42.93151 -71.56071 2980 ft 265 kts 297°
2026-05-04 21:03 42.94295 -71.58129 3055 ft 279 kts 319°
2026-05-04 21:04 42.96273 -71.59026 3293 ft 289 kts 345°
2026-05-04 21:04 42.98290 -71.59592 3430 ft 290 kts 344°
2026-05-04 21:04 43.00323 -71.60159 3593 ft 291 kts 343°
2026-05-04 21:04 43.02383 -71.60720 3934 ft 285 kts 344°
2026-05-04 21:05 43.04289 -71.61227 4533 ft 271 kts 344°
2026-05-04 21:05 43.06116 -71.61682 5332 ft 255 kts 345°
2026-05-04 21:05 43.07933 -71.61171 5992 ft 266 kts 29°
2026-05-04 21:05 43.09100 -71.59077 6674 ft 269 kts 71°
2026-05-04 21:06 43.09230 -71.56530 7331 ft 263 kts 91°
2026-05-04 21:06 43.09178 -71.54050 7944 ft 259 kts 92°
2026-05-04 21:06 43.09116 -71.51581 8570 ft 254 kts 91°
2026-05-04 21:06 43.09055 -71.49143 8913 ft 253 kts 91°
2026-05-04 21:07 43.08996 -71.46581 8966 ft 266 kts 91°
2026-05-04 21:07 43.08934 -71.43941 8977 ft 277 kts 91°
2026-05-04 21:07 43.09153 -71.41175 8966 ft 280 kts 66°
2026-05-04 21:07 43.09968 -71.38651 8972 ft 283 kts 59°
2026-05-04 21:08 43.10902 -71.36203 8972 ft 287 kts 58°
2026-05-04 21:08 43.11882 -71.33697 8974 ft 290 kts 58°
2026-05-04 21:08 43.12858 -71.31209 8986 ft 292 kts 58°
2026-05-04 21:08 43.13858 -71.28648 8963 ft 293 kts 58°
2026-05-04 21:09 43.14845 -71.26131 8999 ft 294 kts 58°
2026-05-04 21:09 43.15830 -71.23611 8973 ft 296 kts 58°
2026-05-04 21:09 43.16839 -71.21031 8976 ft 295 kts 58°
2026-05-04 21:09 43.17828 -71.18499 8945 ft 296 kts 58°
2026-05-04 21:10 43.18810 -71.15977 8970 ft 295 kts 58°
2026-05-04 21:10 43.19800 -71.13434 8968 ft 296 kts 58°
2026-05-04 21:10 43.20793 -71.10888 8960 ft 295 kts 58°
2026-05-04 21:10 43.21783 -71.08342 8943 ft 296 kts 58°
2026-05-04 21:11 43.22779 -71.05780 8952 ft 295 kts 58°
2026-05-04 21:11 43.23784 -71.03191 8956 ft 295 kts 58°
2026-05-04 21:11 43.24768 -71.00652 8955 ft 295 kts 58°
2026-05-04 21:11 43.25763 -70.98086 8961 ft 295 kts 58°
2026-05-04 21:12 43.26770 -70.95490 8960 ft 295 kts 58°
2026-05-04 21:12 43.27762 -70.92915 8958 ft 296 kts 58°
2026-05-04 21:12 43.28757 -70.90341 8958 ft 296 kts 58°
2026-05-04 21:12 43.29762 -70.87738 8957 ft 296 kts 58°
2026-05-04 21:13 43.30753 -70.85164 8957 ft 296 kts 58°
2026-05-04 21:13 43.31746 -70.82594 8958 ft 296 kts 58°
2026-05-04 21:13 43.32740 -70.80015 8961 ft 296 kts 58°
2026-05-04 21:13 43.33742 -70.77416 8689 ft 306 kts 58°
2026-05-04 21:14 43.34771 -70.74794 8364 ft 312 kts 54°
2026-05-04 21:14 43.36155 -70.72347 8019 ft 315 kts 48°
2026-05-04 21:14 43.37555 -70.69955 7694 ft 318 kts 47°
2026-05-04 21:14 43.38967 -70.67536 7384 ft 321 kts 47°
2026-05-04 21:15 43.40396 -70.65087 7058 ft 323 kts 48°
2026-05-04 21:15 43.41823 -70.62633 6764 ft 323 kts 49°
2026-05-04 21:15 43.43369 -70.60259 6443 ft 321 kts 41°
2026-05-04 21:15 43.44978 -70.58030 6198 ft 320 kts 41°
2026-05-04 21:16 43.46570 -70.55826 5942 ft 320 kts 42°
2026-05-04 21:16 43.48195 -70.53580 5750 ft 318 kts 42°
2026-05-04 21:16 43.49784 -70.51381 5542 ft 317 kts 42°
2026-05-04 21:16 43.51393 -70.49149 5310 ft 316 kts 42°
2026-05-04 21:17 43.53016 -70.46978 5095 ft 315 kts 41°
2026-05-04 21:17 43.54117 -70.44225 4951 ft 318 kts 72°
2026-05-04 21:17 43.54784 -70.41310 4622 ft 314 kts 73°
2026-05-04 21:17 43.55443 -70.38318 4277 ft 311 kts 72°
2026-05-04 21:18 43.56096 -70.35367 3933 ft 309 kts 72°
2026-05-04 21:18 43.56757 -70.32383 3584 ft 308 kts 73°
2026-05-04 21:18 43.57402 -70.29454 3238 ft 307 kts 73°
2026-05-04 21:18 43.58042 -70.26534 2985 ft 302 kts 73°
2026-05-04 21:19 43.58677 -70.23634 2954 ft 293 kts 73°
2026-05-04 21:19 43.59288 -70.20843 2932 ft 286 kts 73°
2026-05-04 21:19 43.59899 -70.18062 2941 ft 280 kts 73°
2026-05-04 21:19 43.60491 -70.15353 2942 ft 276 kts 73°
2026-05-04 21:20 43.61075 -70.12672 2959 ft 275 kts 73°
2026-05-04 21:20 43.61661 -70.09980 2939 ft 274 kts 73°
2026-05-04 21:20 43.62245 -70.07302 2942 ft 273 kts 73°
2026-05-04 21:20 43.62855 -70.04659 2927 ft 272 kts 64°
2026-05-04 21:21 43.64010 -70.02434 2945 ft 268 kts 52°
2026-05-04 21:21 43.65199 -70.00249 2932 ft 268 kts 50°
2026-05-04 21:21 43.66398 -69.98058 2948 ft 267 kts 51°
2026-05-04 21:21 43.67595 -69.95864 2951 ft 268 kts 51°
2026-05-04 21:22 43.68267 -69.93359 2974 ft 271 kts 91°
2026-05-04 21:22 43.67604 -69.90849 3133 ft 254 kts 137°
2026-05-04 21:22 43.66062 -69.89588 2977 ft 244 kts 177°
2026-05-04 21:22 43.64377 -69.90051 2769 ft 233 kts 219°
2026-05-04 21:23 43.63395 -69.91949 2559 ft 229 kts 249°
2026-05-04 21:23 43.62682 -69.94082 2295 ft 234 kts 250°
2026-05-04 21:23 43.62426 -69.96411 2038 ft 236 kts 267°
2026-05-04 21:23 43.62460 -69.98816 1775 ft 239 kts 272°
2026-05-04 21:24 43.62582 -70.01253 1656 ft 236 kts 274°
2026-05-04 21:24 43.62720 -70.03603 1644 ft 231 kts 274°
2026-05-04 21:24 43.62864 -70.05924 1643 ft 220 kts 274°
2026-05-04 21:24 43.62997 -70.08085 1629 ft 206 kts 274°
2026-05-04 21:25 43.63124 -70.10104 1758 ft 182 kts 274°
2026-05-04 21:25 43.63226 -70.11801 1782 ft 161 kts 274°
2026-05-04 21:25 43.63323 -70.13426 1655 ft 155 kts 273°
2026-05-04 21:25 43.63417 -70.14934 1639 ft 146 kts 273°
2026-05-04 21:26 43.63504 -70.16376 1639 ft 139 kts 273°
2026-05-04 21:26 43.63585 -70.17751 1643 ft 136 kts 273°
2026-05-04 21:26 43.63666 -70.19123 1645 ft 133 kts 274°
2026-05-04 21:26 43.63752 -70.20316 1809 ft 103 kts 274°
2026-05-04 21:27 43.63816 -70.21339 1652 ft 94 kts 274°
2026-05-04 21:27 43.63874 -70.22187 1614 ft 77 kts 273°
2026-05-04 21:27 43.63927 -70.22981 1421 ft 80 kts 274°
2026-05-04 21:27 43.63985 -70.23812 1222 ft 84 kts 273°
2026-05-04 21:28 43.64042 -70.24654 1045 ft 85 kts 274°
2026-05-04 21:28 43.64102 -70.25510 853 ft 87 kts 274°
2026-05-04 21:28 43.64162 -70.26379 671 ft 89 kts 275°
2026-05-04 21:28 43.64221 -70.27258 484 ft 90 kts 274°
2026-05-04 21:29 43.64280 -70.28141 308 ft 90 kts 275°
2026-05-04 21:29 43.64342 -70.29052 150 ft 98 kts 276°
2026-05-04 21:29 43.64396 -70.29899 54 ft 77 kts 277°
2026-05-04 21:29 43.64439 -70.30443 43 ft 14 kts 276°
2026-05-04 21:30 43.64449 -70.30557 46 ft 9 kts 283°
2026-05-04 21:30 43.64458 -70.30637 47 ft 7 kts 290°
2026-05-04 21:30 43.64484 -70.30687 48 ft 4 kts 341°
2026-05-04 21:30 43.64511 -70.30694 49 ft 2 kts 356°
2026-05-04 21:31 43.64647 -70.30703 49 ft 16 kts 360°
2026-05-04 21:31 43.64778 -70.30706 49 ft 21 kts 358°
2026-05-04 21:31 43.64920 -70.30714 49 ft 20 kts 341°
2026-05-04 21:32 43.64992 -70.30787 52 ft 9 kts 342°
2026-05-04 21:32 43.65034 -70.30806 52 ft 3 kts 354°
2026-05-04 21:32 43.65043 -70.30807 52 ft 0 kts 348°